Back to catalog

COSMOS 2251 DEB

AliveLEO
NORAD 35456·DEBRIS·🇷🇺 Russia

Launched Jun 16, 1993 from Plesetsk Cosmodrome

Loading…

Next Passes (next 24 hours)

TLE

FreshSource: Space-Track

Epoch: Sep 13, 2026, 20:20 UTC

1 35456U 93036ALA 26256.84768880  .00005042  00000-0  74401-3 0  9994
2 35456  73.9473 299.2486 0056077  81.9879 278.7651 14.74487769699248

Track COSMOS 2251 DEB in real time with AllMySat

Download on the App Store